Date_Time,Julian_Date,Latitude,Longitude,Instrument_Depth,Water_Temperature
(yyyy-mm-dd hh:mn:ss UTC),(JD),(+ deg. North),(+ deg. East),(m),(deg. C)
1977-07-17 19:51:00 UTC,2443342.327083,29.1083,-87.9186,0194,16.1480
1977-07-17 20:11:00 UTC,2443342.340972,29.1083,-87.9186,0194,16.3350
1977-07-17 20:31:00 UTC,2443342.354861,29.1083,-87.9186,0194,16.3350
1977-07-17 20:51:00 UTC,2443342.368750,29.1083,-87.9186,0194,16.3350
1977-07-17 21:11:00 UTC,2443342.382639,29.1083,-87.9186,0194,16.3350
1977-07-17 21:31:00 UTC,2443342.396528,29.1083,-87.9186,0194,16.3350
1977-07-17 21:51:00 UTC,2443342.410417,29.1083,-87.9186,0194,999.9999
1977-07-17 22:11:00 UTC,2443342.424306,29.1083,-87.9186,0194,999.9999
1977-07-17 22:31:00 UTC,2443342.438194,29.1083,-87.9186,0194,999.9999
1977-07-17 22:51:00 UTC,2443342.452083,29.1083,-87.9186,0194,999.9999
1977-07-17 23:11:00 UTC,2443342.465972,29.1083,-87.9186,0194,999.9999
1977-07-17 23:31:00 UTC,2443342.479861,29.1083,-87.9186,0194,16.3350
1977-07-17 23:51:00 UTC,2443342.493750,29.1083,-87.9186,0194,16.3350
1977-07-18 00:11:00 UTC,2443342.507639,29.1083,-87.9186,0194,16.3350
1977-07-18 00:31:00 UTC,2443342.521528,29.1083,-87.9186,0194,16.3350
1977-07-18 00:51:00 UTC,2443342.535417,29.1083,-87.9186,0194,16.3350
1977-07-18 01:11:00 UTC,2443342.549306,29.1083,-87.9186,0194,16.3350
1977-07-18 01:31:00 UTC,2443342.563194,29.1083,-87.9186,0194,16.3350
1977-07-18 01:51:00 UTC,2443342.577083,29.1083,-87.9186,0194,16.3350
1977-07-18 02:11:00 UTC,2443342.590972,29.1083,-87.9186,0194,16.3350
1977-07-18 02:31:00 UTC,2443342.604861,29.1083,-87.9186,0194,16.3350
1977-07-18 02:51:00 UTC,2443342.618750,29.1083,-87.9186,0194,16.3350
1977-07-18 03:11:00 UTC,2443342.632639,29.1083,-87.9186,0194,16.3350
1977-07-18 03:31:00 UTC,2443342.646528,29.1083,-87.9186,0194,16.3350
1977-07-18 03:51:00 UTC,2443342.660417,29.1083,-87.9186,0194,16.3350
1977-07-18 04:11:00 UTC,2443342.674306,29.1083,-87.9186,0194,16.1480
1977-07-18 04:31:00 UTC,2443342.688194,29.1083,-87.9186,0194,16.1480
1977-07-18 04:51:00 UTC,2443342.702083,29.1083,-87.9186,0194,16.3350
1977-07-18 05:11:00 UTC,2443342.715972,29.1083,-87.9186,0194,16.3350
1977-07-18 05:31:00 UTC,2443342.729861,29.1083,-87.9186,0194,16.3350
1977-07-18 05:51:00 UTC,2443342.743750,29.1083,-87.9186,0194,15.9610
1977-07-18 06:11:00 UTC,2443342.757639,29.1083,-87.9186,0194,15.9610
1977-07-18 06:31:00 UTC,2443342.771528,29.1083,-87.9186,0194,15.9610
1977-07-18 06:51:00 UTC,2443342.785417,29.1083,-87.9186,0194,16.3350
1977-07-18 07:11:00 UTC,2443342.799306,29.1083,-87.9186,0194,16.3350
1977-07-18 07:31:00 UTC,2443342.813194,29.1083,-87.9186,0194,16.3350
1977-07-18 07:51:00 UTC,2443342.827083,29.1083,-87.9186,0194,16.3350
1977-07-18 08:11:00 UTC,2443342.840972,29.1083,-87.9186,0194,16.3350
1977-07-18 08:31:00 UTC,2443342.854861,29.1083,-87.9186,0194,16.3350
1977-07-18 08:51:00 UTC,2443342.868750,29.1083,-87.9186,0194,16.3350
1977-07-18 09:11:00 UTC,2443342.882639,29.1083,-87.9186,0194,16.3350
1977-07-18 09:31:00 UTC,2443342.896528,29.1083,-87.9186,0194,16.3350
1977-07-18 09:51:00 UTC,2443342.910417,29.1083,-87.9186,0194,16.2180
1977-07-18 10:11:00 UTC,2443342.924306,29.1083,-87.9186,0194,16.3350
1977-07-18 10:31:00 UTC,2443342.938194,29.1083,-87.9186,0194,16.3350
1977-07-18 10:51:00 UTC,2443342.952083,29.1083,-87.9186,0194,16.3350
1977-07-18 11:11:00 UTC,2443342.965972,29.1083,-87.9186,0194,16.3350
1977-07-18 11:31:00 UTC,2443342.979861,29.1083,-87.9186,0194,16.2880
1977-07-18 11:51:00 UTC,2443342.993750,29.1083,-87.9186,0194,16.2880
1977-07-18 12:11:00 UTC,2443343.007639,29.1083,-87.9186,0194,16.2880
1977-07-18 12:31:00 UTC,2443343.021528,29.1083,-87.9186,0194,16.3350
1977-07-18 12:51:00 UTC,2443343.035417,29.1083,-87.9186,0194,16.3350
1977-07-18 13:11:00 UTC,2443343.049306,29.1083,-87.9186,0194,16.3350
1977-07-18 13:31:00 UTC,2443343.063194,29.1083,-87.9186,0194,16.3350
1977-07-18 13:51:00 UTC,2443343.077083,29.1083,-87.9186,0194,16.3350
1977-07-18 14:11:00 UTC,2443343.090972,29.1083,-87.9186,0194,16.7100
1977-07-18 14:31:00 UTC,2443343.104861,29.1083,-87.9186,0194,16.7100
1977-07-18 14:51:00 UTC,2443343.118750,29.1083,-87.9186,0194,16.3350
1977-07-18 15:11:00 UTC,2443343.132639,29.1083,-87.9186,0194,16.7100
1977-07-18 15:31:00 UTC,2443343.146528,29.1083,-87.9186,0194,16.3350
1977-07-18 15:51:00 UTC,2443343.160417,29.1083,-87.9186,0194,16.3350
1977-07-18 16:11:00 UTC,2443343.174306,29.1083,-87.9186,0194,16.3350
1977-07-18 16:31:00 UTC,2443343.188194,29.1083,-87.9186,0194,16.3350
1977-07-18 16:51:00 UTC,2443343.202083,29.1083,-87.9186,0194,16.5230
1977-07-18 17:11:00 UTC,2443343.215972,29.1083,-87.9186,0194,16.5230
1977-07-18 17:31:00 UTC,2443343.229861,29.1083,-87.9186,0194,16.5230
1977-07-18 17:51:00 UTC,2443343.243750,29.1083,-87.9186,0194,16.5230
1977-07-18 18:11:00 UTC,2443343.257639,29.1083,-87.9186,0194,16.5230
1977-07-18 18:31:00 UTC,2443343.271528,29.1083,-87.9186,0194,16.7100
1977-07-18 18:51:00 UTC,2443343.285417,29.1083,-87.9186,0194,16.5230
1977-07-18 19:11:00 UTC,2443343.299306,29.1083,-87.9186,0194,16.5230
1977-07-18 19:31:00 UTC,2443343.313194,29.1083,-87.9186,0194,16.5230
1977-07-18 19:51:00 UTC,2443343.327083,29.1083,-87.9186,0194,16.5230
1977-07-18 20:11:00 UTC,2443343.340972,29.1083,-87.9186,0194,16.4760
1977-07-18 20:31:00 UTC,2443343.354861,29.1083,-87.9186,0194,16.5230
1977-07-18 20:51:00 UTC,2443343.368750,29.1083,-87.9186,0194,16.5230
1977-07-18 21:11:00 UTC,2443343.382639,29.1083,-87.9186,0194,16.5230
1977-07-18 21:31:00 UTC,2443343.396528,29.1083,-87.9186,0194,16.5230
1977-07-18 21:51:00 UTC,2443343.410417,29.1083,-87.9186,0194,16.3350
1977-07-18 22:11:00 UTC,2443343.424306,29.1083,-87.9186,0194,16.5230
1977-07-18 22:31:00 UTC,2443343.438194,29.1083,-87.9186,0194,16.3350
1977-07-18 22:51:00 UTC,2443343.452083,29.1083,-87.9186,0194,16.3350
1977-07-18 23:11:00 UTC,2443343.465972,29.1083,-87.9186,0194,16.3350
1977-07-18 23:31:00 UTC,2443343.479861,29.1083,-87.9186,0194,16.3350
1977-07-18 23:51:00 UTC,2443343.493750,29.1083,-87.9186,0194,16.3350
1977-07-19 00:11:00 UTC,2443343.507639,29.1083,-87.9186,0194,16.3350
1977-07-19 00:31:00 UTC,2443343.521528,29.1083,-87.9186,0194,16.3350
1977-07-19 00:51:00 UTC,2443343.535417,29.1083,-87.9186,0194,16.3350
1977-07-19 01:11:00 UTC,2443343.549306,29.1083,-87.9186,0194,16.3350
1977-07-19 01:31:00 UTC,2443343.563194,29.1083,-87.9186,0194,16.3350
1977-07-19 01:51:00 UTC,2443343.577083,29.1083,-87.9186,0194,16.3350
1977-07-19 02:11:00 UTC,2443343.590972,29.1083,-87.9186,0194,16.3350
1977-07-19 02:31:00 UTC,2443343.604861,29.1083,-87.9186,0194,16.3350
1977-07-19 02:51:00 UTC,2443343.618750,29.1083,-87.9186,0194,16.3350
1977-07-19 03:11:00 UTC,2443343.632639,29.1083,-87.9186,0194,16.5230
1977-07-19 03:31:00 UTC,2443343.646528,29.1083,-87.9186,0194,16.5230
1977-07-19 03:51:00 UTC,2443343.660417,29.1083,-87.9186,0194,16.3350
1977-07-19 04:11:00 UTC,2443343.674306,29.1083,-87.9186,0194,16.7100
1977-07-19 04:31:00 UTC,2443343.688194,29.1083,-87.9186,0194,16.3350
1977-07-19 04:51:00 UTC,2443343.702083,29.1083,-87.9186,0194,16.3350
1977-07-19 05:11:00 UTC,2443343.715972,29.1083,-87.9186,0194,16.3350
1977-07-19 05:31:00 UTC,2443343.729861,29.1083,-87.9186,0194,16.3350
1977-07-19 05:51:00 UTC,2443343.743750,29.1083,-87.9186,0194,16.3350
1977-07-19 06:11:00 UTC,2443343.757639,29.1083,-87.9186,0194,16.3350
1977-07-19 06:31:00 UTC,2443343.771528,29.1083,-87.9186,0194,16.3350
1977-07-19 06:51:00 UTC,2443343.785417,29.1083,-87.9186,0194,16.7100
1977-07-19 07:11:00 UTC,2443343.799306,29.1083,-87.9186,0194,16.2880
1977-07-19 07:31:00 UTC,2443343.813194,29.1083,-87.9186,0194,16.3350
1977-07-19 07:51:00 UTC,2443343.827083,29.1083,-87.9186,0194,16.5230
1977-07-19 08:11:00 UTC,2443343.840972,29.1083,-87.9186,0194,16.5230
1977-07-19 08:31:00 UTC,2443343.854861,29.1083,-87.9186,0194,16.5230
1977-07-19 08:51:00 UTC,2443343.868750,29.1083,-87.9186,0194,16.4760
1977-07-19 09:11:00 UTC,2443343.882639,29.1083,-87.9186,0194,16.5230
1977-07-19 09:31:00 UTC,2443343.896528,29.1083,-87.9186,0194,16.3350
1977-07-19 09:51:00 UTC,2443343.910417,29.1083,-87.9186,0194,16.3350
1977-07-19 10:11:00 UTC,2443343.924306,29.1083,-87.9186,0194,16.7100
1977-07-19 10:31:00 UTC,2443343.938194,29.1083,-87.9186,0194,16.3350
1977-07-19 10:51:00 UTC,2443343.952083,29.1083,-87.9186,0194,16.3350
1977-07-19 11:11:00 UTC,2443343.965972,29.1083,-87.9186,0194,16.3350
1977-07-19 11:31:00 UTC,2443343.979861,29.1083,-87.9186,0194,16.3350
1977-07-19 11:51:00 UTC,2443343.993750,29.1083,-87.9186,0194,16.3350
1977-07-19 12:11:00 UTC,2443344.007639,29.1083,-87.9186,0194,16.3350
1977-07-19 12:31:00 UTC,2443344.021528,29.1083,-87.9186,0194,16.3350
1977-07-19 12:51:00 UTC,2443344.035417,29.1083,-87.9186,0194,16.3350
1977-07-19 13:11:00 UTC,2443344.049306,29.1083,-87.9186,0194,16.3350
1977-07-19 13:31:00 UTC,2443344.063194,29.1083,-87.9186,0194,16.3350
1977-07-19 13:51:00 UTC,2443344.077083,29.1083,-87.9186,0194,16.3350
1977-07-19 14:11:00 UTC,2443344.090972,29.1083,-87.9186,0194,16.3350
1977-07-19 14:31:00 UTC,2443344.104861,29.1083,-87.9186,0194,16.3350
1977-07-19 14:51:00 UTC,2443344.118750,29.1083,-87.9186,0194,16.3350
1977-07-19 15:11:00 UTC,2443344.132639,29.1083,-87.9186,0194,16.3350
1977-07-19 15:31:00 UTC,2443344.146528,29.1083,-87.9186,0194,16.3350
1977-07-19 15:51:00 UTC,2443344.160417,29.1083,-87.9186,0194,16.3350
1977-07-19 16:11:00 UTC,2443344.174306,29.1083,-87.9186,0194,16.3350
1977-07-19 16:31:00 UTC,2443344.188194,29.1083,-87.9186,0194,16.3350
1977-07-19 16:51:00 UTC,2443344.202083,29.1083,-87.9186,0194,16.3350
1977-07-19 17:11:00 UTC,2443344.215972,29.1083,-87.9186,0194,16.3350
1977-07-19 17:31:00 UTC,2443344.229861,29.1083,-87.9186,0194,16.3350
1977-07-19 17:51:00 UTC,2443344.243750,29.1083,-87.9186,0194,16.3350
1977-07-19 18:11:00 UTC,2443344.257639,29.1083,-87.9186,0194,16.3350
1977-07-19 18:31:00 UTC,2443344.271528,29.1083,-87.9186,0194,16.3350
1977-07-19 18:51:00 UTC,2443344.285417,29.1083,-87.9186,0194,16.3350
1977-07-19 19:11:00 UTC,2443344.299306,29.1083,-87.9186,0194,16.2880
1977-07-19 19:31:00 UTC,2443344.313194,29.1083,-87.9186,0194,16.3350
1977-07-19 19:51:00 UTC,2443344.327083,29.1083,-87.9186,0194,16.3350
1977-07-19 20:11:00 UTC,2443344.340972,29.1083,-87.9186,0194,16.3350
1977-07-19 20:31:00 UTC,2443344.354861,29.1083,-87.9186,0194,16.3350
1977-07-19 20:51:00 UTC,2443344.368750,29.1083,-87.9186,0194,16.7100
1977-07-19 21:11:00 UTC,2443344.382639,29.1083,-87.9186,0194,16.3350
1977-07-19 21:31:00 UTC,2443344.396528,29.1083,-87.9186,0194,16.3350
1977-07-19 21:51:00 UTC,2443344.410417,29.1083,-87.9186,0194,16.3350
1977-07-19 22:11:00 UTC,2443344.424306,29.1083,-87.9186,0194,16.3350
1977-07-19 22:31:00 UTC,2443344.438194,29.1083,-87.9186,0194,16.3350
1977-07-19 22:51:00 UTC,2443344.452083,29.1083,-87.9186,0194,16.3350
1977-07-19 23:11:00 UTC,2443344.465972,29.1083,-87.9186,0194,16.3350
1977-07-19 23:31:00 UTC,2443344.479861,29.1083,-87.9186,0194,16.7100
1977-07-19 23:51:00 UTC,2443344.493750,29.1083,-87.9186,0194,16.7100
1977-07-20 00:11:00 UTC,2443344.507639,29.1083,-87.9186,0194,16.7100
1977-07-20 00:31:00 UTC,2443344.521528,29.1083,-87.9186,0194,16.3350
1977-07-20 00:51:00 UTC,2443344.535417,29.1083,-87.9186,0194,16.3350
1977-07-20 01:11:00 UTC,2443344.549306,29.1083,-87.9186,0194,16.3350
1977-07-20 01:31:00 UTC,2443344.563194,29.1083,-87.9186,0194,16.3350
1977-07-20 01:51:00 UTC,2443344.577083,29.1083,-87.9186,0194,16.3350
1977-07-20 02:11:00 UTC,2443344.590972,29.1083,-87.9186,0194,16.3350
1977-07-20 02:31:00 UTC,2443344.604861,29.1083,-87.9186,0194,16.3350
1977-07-20 02:51:00 UTC,2443344.618750,29.1083,-87.9186,0194,16.3350
1977-07-20 03:11:00 UTC,2443344.632639,29.1083,-87.9186,0194,16.3350
1977-07-20 03:31:00 UTC,2443344.646528,29.1083,-87.9186,0194,16.1480
1977-07-20 03:51:00 UTC,2443344.660417,29.1083,-87.9186,0194,16.3350
1977-07-20 04:11:00 UTC,2443344.674306,29.1083,-87.9186,0194,16.3350
1977-07-20 04:31:00 UTC,2443344.688194,29.1083,-87.9186,0194,16.3350
1977-07-20 04:51:00 UTC,2443344.702083,29.1083,-87.9186,0194,16.3350
1977-07-20 05:11:00 UTC,2443344.715972,29.1083,-87.9186,0194,16.3350
1977-07-20 05:31:00 UTC,2443344.729861,29.1083,-87.9186,0194,16.3350
1977-07-20 05:51:00 UTC,2443344.743750,29.1083,-87.9186,0194,16.3350
1977-07-20 06:11:00 UTC,2443344.757639,29.1083,-87.9186,0194,16.3350
1977-07-20 06:31:00 UTC,2443344.771528,29.1083,-87.9186,0194,16.3350
1977-07-20 06:51:00 UTC,2443344.785417,29.1083,-87.9186,0194,16.3350
1977-07-20 07:11:00 UTC,2443344.799306,29.1083,-87.9186,0194,16.2880
1977-07-20 07:31:00 UTC,2443344.813194,29.1083,-87.9186,0194,16.1950
1977-07-20 07:51:00 UTC,2443344.827083,29.1083,-87.9186,0194,16.3350
1977-07-20 08:11:00 UTC,2443344.840972,29.1083,-87.9186,0194,16.3350
1977-07-20 08:31:00 UTC,2443344.854861,29.1083,-87.9186,0194,16.3350
1977-07-20 08:51:00 UTC,2443344.868750,29.1083,-87.9186,0194,16.3350
1977-07-20 09:11:00 UTC,2443344.882639,29.1083,-87.9186,0194,16.3350
1977-07-20 09:31:00 UTC,2443344.896528,29.1083,-87.9186,0194,16.3350
1977-07-20 09:51:00 UTC,2443344.910417,29.1083,-87.9186,0194,16.3350
1977-07-20 10:11:00 UTC,2443344.924306,29.1083,-87.9186,0194,16.3350
1977-07-20 10:31:00 UTC,2443344.938194,29.1083,-87.9186,0194,16.3350
1977-07-20 10:51:00 UTC,2443344.952083,29.1083,-87.9186,0194,16.3350
1977-07-20 11:11:00 UTC,2443344.965972,29.1083,-87.9186,0194,16.2880
1977-07-20 11:31:00 UTC,2443344.979861,29.1083,-87.9186,0194,16.1480
1977-07-20 11:51:00 UTC,2443344.993750,29.1083,-87.9186,0194,16.3350
1977-07-20 12:11:00 UTC,2443345.007639,29.1083,-87.9186,0194,16.3350
1977-07-20 12:31:00 UTC,2443345.021528,29.1083,-87.9186,0194,16.7100
1977-07-20 12:51:00 UTC,2443345.035417,29.1083,-87.9186,0194,16.3350
1977-07-20 13:11:00 UTC,2443345.049306,29.1083,-87.9186,0194,16.0540
1977-07-20 13:31:00 UTC,2443345.063194,29.1083,-87.9186,0194,16.2880
1977-07-20 13:51:00 UTC,2443345.077083,29.1083,-87.9186,0194,15.9610
1977-07-20 14:11:00 UTC,2443345.090972,29.1083,-87.9186,0194,16.2420
1977-07-20 14:31:00 UTC,2443345.104861,29.1083,-87.9186,0194,15.9610
1977-07-20 14:51:00 UTC,2443345.118750,29.1083,-87.9186,0194,15.9610
1977-07-20 15:11:00 UTC,2443345.132639,29.1083,-87.9186,0194,16.3350
1977-07-20 15:31:00 UTC,2443345.146528,29.1083,-87.9186,0194,16.3350
1977-07-20 15:51:00 UTC,2443345.160417,29.1083,-87.9186,0194,16.3350
1977-07-20 16:11:00 UTC,2443345.174306,29.1083,-87.9186,0194,16.2420
1977-07-20 16:31:00 UTC,2443345.188194,29.1083,-87.9186,0194,16.3350
1977-07-20 16:51:00 UTC,2443345.202083,29.1083,-87.9186,0194,16.3350
1977-07-20 17:11:00 UTC,2443345.215972,29.1083,-87.9186,0194,16.3350
1977-07-20 17:31:00 UTC,2443345.229861,29.1083,-87.9186,0194,16.3350
1977-07-20 17:51:00 UTC,2443345.243750,29.1083,-87.9186,0194,16.3350
1977-07-20 18:11:00 UTC,2443345.257639,29.1083,-87.9186,0194,16.2420
1977-07-20 18:31:00 UTC,2443345.271528,29.1083,-87.9186,0194,16.3350
1977-07-20 18:51:00 UTC,2443345.285417,29.1083,-87.9186,0194,16.3350
1977-07-20 19:11:00 UTC,2443345.299306,29.1083,-87.9186,0194,16.2880
1977-07-20 19:31:00 UTC,2443345.313194,29.1083,-87.9186,0194,16.3350
1977-07-20 19:51:00 UTC,2443345.327083,29.1083,-87.9186,0194,16.3350
1977-07-20 20:11:00 UTC,2443345.340972,29.1083,-87.9186,0194,16.3350
1977-07-20 20:31:00 UTC,2443345.354861,29.1083,-87.9186,0194,16.3350
1977-07-20 20:51:00 UTC,2443345.368750,29.1083,-87.9186,0194,16.3350
1977-07-20 21:11:00 UTC,2443345.382639,29.1083,-87.9186,0194,16.3350
1977-07-20 21:31:00 UTC,2443345.396528,29.1083,-87.9186,0194,16.3350
1977-07-20 21:51:00 UTC,2443345.410417,29.1083,-87.9186,0194,16.3350
1977-07-20 22:11:00 UTC,2443345.424306,29.1083,-87.9186,0194,16.2880
1977-07-20 22:31:00 UTC,2443345.438194,29.1083,-87.9186,0194,16.3350
1977-07-20 22:51:00 UTC,2443345.452083,29.1083,-87.9186,0194,16.3350
1977-07-20 23:11:00 UTC,2443345.465972,29.1083,-87.9186,0194,16.3350
1977-07-20 23:31:00 UTC,2443345.479861,29.1083,-87.9186,0194,16.3350
1977-07-20 23:51:00 UTC,2443345.493750,29.1083,-87.9186,0194,16.3350
1977-07-21 00:11:00 UTC,2443345.507639,29.1083,-87.9186,0194,16.3350
1977-07-21 00:31:00 UTC,2443345.521528,29.1083,-87.9186,0194,16.3350
1977-07-21 00:51:00 UTC,2443345.535417,29.1083,-87.9186,0194,16.3350
1977-07-21 01:11:00 UTC,2443345.549306,29.1083,-87.9186,0194,16.3350
1977-07-21 01:31:00 UTC,2443345.563194,29.1083,-87.9186,0194,16.3350
1977-07-21 01:51:00 UTC,2443345.577083,29.1083,-87.9186,0194,16.3350
1977-07-21 02:11:00 UTC,2443345.590972,29.1083,-87.9186,0194,15.9610
1977-07-21 02:31:00 UTC,2443345.604861,29.1083,-87.9186,0194,15.9610
1977-07-21 02:51:00 UTC,2443345.618750,29.1083,-87.9186,0194,16.2880
1977-07-21 03:11:00 UTC,2443345.632639,29.1083,-87.9186,0194,16.2880
1977-07-21 03:31:00 UTC,2443345.646528,29.1083,-87.9186,0194,16.1950
1977-07-21 03:51:00 UTC,2443345.660417,29.1083,-87.9186,0194,15.9140
1977-07-21 04:11:00 UTC,2443345.674306,29.1083,-87.9186,0194,16.3350
1977-07-21 04:31:00 UTC,2443345.688194,29.1083,-87.9186,0194,15.9610
1977-07-21 04:51:00 UTC,2443345.702083,29.1083,-87.9186,0194,15.9610
1977-07-21 05:11:00 UTC,2443345.715972,29.1083,-87.9186,0194,15.9610
1977-07-21 05:31:00 UTC,2443345.729861,29.1083,-87.9186,0194,15.9610
1977-07-21 05:51:00 UTC,2443345.743750,29.1083,-87.9186,0194,15.9610
1977-07-21 06:11:00 UTC,2443345.757639,29.1083,-87.9186,0194,15.9610
1977-07-21 06:31:00 UTC,2443345.771528,29.1083,-87.9186,0194,15.9140
1977-07-21 06:51:00 UTC,2443345.785417,29.1083,-87.9186,0194,15.9610
1977-07-21 07:11:00 UTC,2443345.799306,29.1083,-87.9186,0194,16.3350
1977-07-21 07:31:00 UTC,2443345.813194,29.1083,-87.9186,0194,16.3350
1977-07-21 07:51:00 UTC,2443345.827083,29.1083,-87.9186,0194,16.1480
1977-07-21 08:11:00 UTC,2443345.840972,29.1083,-87.9186,0194,16.2880
1977-07-21 08:31:00 UTC,2443345.854861,29.1083,-87.9186,0194,16.3350
1977-07-21 08:51:00 UTC,2443345.868750,29.1083,-87.9186,0194,16.2880
1977-07-21 09:11:00 UTC,2443345.882639,29.1083,-87.9186,0194,15.9610
1977-07-21 09:31:00 UTC,2443345.896528,29.1083,-87.9186,0194,15.9610
1977-07-21 09:51:00 UTC,2443345.910417,29.1083,-87.9186,0194,15.9140
1977-07-21 10:11:00 UTC,2443345.924306,29.1083,-87.9186,0194,15.9610
1977-07-21 10:31:00 UTC,2443345.938194,29.1083,-87.9186,0194,15.9610
1977-07-21 10:51:00 UTC,2443345.952083,29.1083,-87.9186,0194,15.9140
1977-07-21 11:11:00 UTC,2443345.965972,29.1083,-87.9186,0194,15.9610
1977-07-21 11:31:00 UTC,2443345.979861,29.1083,-87.9186,0194,15.9610
1977-07-21 11:51:00 UTC,2443345.993750,29.1083,-87.9186,0194,15.9610
1977-07-21 12:11:00 UTC,2443346.007639,29.1083,-87.9186,0194,15.9610
1977-07-21 12:31:00 UTC,2443346.021528,29.1083,-87.9186,0194,15.9140
1977-07-21 12:51:00 UTC,2443346.035417,29.1083,-87.9186,0194,15.9140
1977-07-21 13:11:00 UTC,2443346.049306,29.1083,-87.9186,0194,15.9610
1977-07-21 13:31:00 UTC,2443346.063194,29.1083,-87.9186,0194,15.9610
1977-07-21 13:51:00 UTC,2443346.077083,29.1083,-87.9186,0194,15.9610
1977-07-21 14:11:00 UTC,2443346.090972,29.1083,-87.9186,0194,15.9610
1977-07-21 14:31:00 UTC,2443346.104861,29.1083,-87.9186,0194,15.9610
1977-07-21 14:51:00 UTC,2443346.118750,29.1083,-87.9186,0194,15.9610
1977-07-21 15:11:00 UTC,2443346.132639,29.1083,-87.9186,0194,15.9140
1977-07-21 15:31:00 UTC,2443346.146528,29.1083,-87.9186,0194,15.9610
1977-07-21 15:51:00 UTC,2443346.160417,29.1083,-87.9186,0194,15.9610
1977-07-21 16:11:00 UTC,2443346.174306,29.1083,-87.9186,0194,15.9610
1977-07-21 16:31:00 UTC,2443346.188194,29.1083,-87.9186,0194,15.9610
1977-07-21 16:51:00 UTC,2443346.202083,29.1083,-87.9186,0194,15.9610
1977-07-21 17:11:00 UTC,2443346.215972,29.1083,-87.9186,0194,15.9610
1977-07-21 17:31:00 UTC,2443346.229861,29.1083,-87.9186,0194,15.9610
1977-07-21 17:51:00 UTC,2443346.243750,29.1083,-87.9186,0194,15.9140
1977-07-21 18:11:00 UTC,2443346.257639,29.1083,-87.9186,0194,15.9610
1977-07-21 18:31:00 UTC,2443346.271528,29.1083,-87.9186,0194,15.9610
1977-07-21 18:51:00 UTC,2443346.285417,29.1083,-87.9186,0194,15.9610
1977-07-21 19:11:00 UTC,2443346.299306,29.1083,-87.9186,0194,16.7100
1977-07-21 19:31:00 UTC,2443346.313194,29.1083,-87.9186,0194,15.9610
1977-07-21 19:51:00 UTC,2443346.327083,29.1083,-87.9186,0194,15.8670
1977-07-21 20:11:00 UTC,2443346.340972,29.1083,-87.9186,0194,15.9610
1977-07-21 20:31:00 UTC,2443346.354861,29.1083,-87.9186,0194,15.9140
1977-07-21 20:51:00 UTC,2443346.368750,29.1083,-87.9186,0194,15.9610
1977-07-21 21:11:00 UTC,2443346.382639,29.1083,-87.9186,0194,15.9610
1977-07-21 21:31:00 UTC,2443346.396528,29.1083,-87.9186,0194,15.9610
1977-07-21 21:51:00 UTC,2443346.410417,29.1083,-87.9186,0194,15.9610
1977-07-21 22:11:00 UTC,2443346.424306,29.1083,-87.9186,0194,15.9610
1977-07-21 22:31:00 UTC,2443346.438194,29.1083,-87.9186,0194,15.9610
1977-07-21 22:51:00 UTC,2443346.452083,29.1083,-87.9186,0194,15.9610
1977-07-21 23:11:00 UTC,2443346.465972,29.1083,-87.9186,0194,15.9610
1977-07-21 23:31:00 UTC,2443346.479861,29.1083,-87.9186,0194,15.9610
1977-07-21 23:51:00 UTC,2443346.493750,29.1083,-87.9186,0194,15.8670
1977-07-22 00:11:00 UTC,2443346.507639,29.1083,-87.9186,0194,15.9610
1977-07-22 00:31:00 UTC,2443346.521528,29.1083,-87.9186,0194,15.9610
1977-07-22 00:51:00 UTC,2443346.535417,29.1083,-87.9186,0194,15.9140
1977-07-22 01:11:00 UTC,2443346.549306,29.1083,-87.9186,0194,15.9610
1977-07-22 01:31:00 UTC,2443346.563194,29.1083,-87.9186,0194,15.9610
1977-07-22 01:51:00 UTC,2443346.577083,29.1083,-87.9186,0194,15.9610
1977-07-22 02:11:00 UTC,2443346.590972,29.1083,-87.9186,0194,15.9610
1977-07-22 02:31:00 UTC,2443346.604861,29.1083,-87.9186,0194,15.9610
1977-07-22 02:51:00 UTC,2443346.618750,29.1083,-87.9186,0194,15.9140
1977-07-22 03:11:00 UTC,2443346.632639,29.1083,-87.9186,0194,15.9140
1977-07-22 03:31:00 UTC,2443346.646528,29.1083,-87.9186,0194,15.9610
1977-07-22 03:51:00 UTC,2443346.660417,29.1083,-87.9186,0194,15.9610
1977-07-22 04:11:00 UTC,2443346.674306,29.1083,-87.9186,0194,15.9610
1977-07-22 04:31:00 UTC,2443346.688194,29.1083,-87.9186,0194,15.9610
1977-07-22 04:51:00 UTC,2443346.702083,29.1083,-87.9186,0194,15.9610
1977-07-22 05:11:00 UTC,2443346.715972,29.1083,-87.9186,0194,15.9140
1977-07-22 05:31:00 UTC,2443346.729861,29.1083,-87.9186,0194,999.9999
1977-07-22 05:51:00 UTC,2443346.743750,29.1083,-87.9186,0194,999.9999
1977-07-22 06:11:00 UTC,2443346.757639,29.1083,-87.9186,0194,999.9999
1977-07-22 06:31:00 UTC,2443346.771528,29.1083,-87.9186,0194,999.9999
1977-07-22 06:51:00 UTC,2443346.785417,29.1083,-87.9186,0194,999.9999
1977-07-22 07:11:00 UTC,2443346.799306,29.1083,-87.9186,0194,999.9999
1977-07-22 07:31:00 UTC,2443346.813194,29.1083,-87.9186,0194,999.9999
1977-07-22 07:51:00 UTC,2443346.827083,29.1083,-87.9186,0194,999.9999
1977-07-22 08:11:00 UTC,2443346.840972,29.1083,-87.9186,0194,999.9999
1977-07-22 08:31:00 UTC,2443346.854861,29.1083,-87.9186,0194,15.9610
1977-07-22 08:51:00 UTC,2443346.868750,29.1083,-87.9186,0194,15.9610
1977-07-22 09:11:00 UTC,2443346.882639,29.1083,-87.9186,0194,15.9610
1977-07-22 09:31:00 UTC,2443346.896528,29.1083,-87.9186,0194,15.9610
1977-07-22 09:51:00 UTC,2443346.910417,29.1083,-87.9186,0194,15.9610
1977-07-22 10:11:00 UTC,2443346.924306,29.1083,-87.9186,0194,15.7730
1977-07-22 10:31:00 UTC,2443346.938194,29.1083,-87.9186,0194,15.9610
1977-07-22 10:51:00 UTC,2443346.952083,29.1083,-87.9186,0194,15.9610
1977-07-22 11:11:00 UTC,2443346.965972,29.1083,-87.9186,0194,15.9610
1977-07-22 11:31:00 UTC,2443346.979861,29.1083,-87.9186,0194,15.9610
1977-07-22 11:51:00 UTC,2443346.993750,29.1083,-87.9186,0194,15.9610
1977-07-22 12:11:00 UTC,2443347.007639,29.1083,-87.9186,0194,15.9610
1977-07-22 12:31:00 UTC,2443347.021528,29.1083,-87.9186,0194,15.9610
1977-07-22 12:51:00 UTC,2443347.035417,29.1083,-87.9186,0194,15.9610
1977-07-22 13:11:00 UTC,2443347.049306,29.1083,-87.9186,0194,15.9610
1977-07-22 13:31:00 UTC,2443347.063194,29.1083,-87.9186,0194,15.8670
1977-07-22 13:51:00 UTC,2443347.077083,29.1083,-87.9186,0194,16.7100
1977-07-22 14:11:00 UTC,2443347.090972,29.1083,-87.9186,0194,999.9999
1977-07-22 14:31:00 UTC,2443347.104861,29.1083,-87.9186,0194,15.7260